SL-3 R/B (13819 NORAD) Tracking and Keplerian Element Data

This shows tracking and keplerian element data for the satellite.

Feedback or suggestion? Click here.




ElementValue
Catalog13819
NameSL-3 R/B
Epoch Orbit23766
Epoch Day13.04577786
Epoch Year2024
RAAN229.0518
Inclination81.1103
Eccentricity0.0024915
Argument of Perigee231.6099
Mean Anonmoly128.2897
Mean Motion15.23989241
Decay Rate7.633E-05
L11 13819U 83010B 24013.04577786 .00007633 00000+0 31149-3 0 9997
L22 13819 81.1103 229.0518 0024915 231.6099 128.2897 15.23989241237661



Live tracking and technical data element details for SL-3 R/B (NORAD 13819). SL-3 R/B can be tracked NOW for your location showing map with azimuth and elevation plus other details from your city location.







IsCatalogInMostPopularTable: catalog: 13819, numindb: 306
Update: records affected: 1



GetName: 13819 SL-3 R/B

Hit Count: updated at: Fri, 19 Apr 2024 13:19:33 GMT